Tracking 18942 objects as of 18-Jan-2018
HD Live streaming from Space Station
objects crossing your sky now

SL-12 DEB

Track SL-12 DEB now!
10-day predictions


NORAD ID: 41702
Int'l Code: 2010-007U
Perigee: 368.3 km
Apogee: 16,114.9 km
Inclination: 65.1 °
Period: 293.0 minutes
Semi major axis: 14612 km
RCS: Unknown
Launch date: March 1, 2010
Source: Commonwealth of Independent States (former USSR) (CIS)
Launch site: TYURATAM MISSILE AND SPACE COMPLEX (TTMTR)

Note: This is SATELLITE DEBRIS
aabbcc
Your satellite tracking list
Your tracking list is empty




NASA's NSSDC Master Catalog

Two Line Element Set (TLE):
1 41702U 10007U   18017.46322679  .00105171  00000-0  47852-1 0  9990
2 41702  65.0954 211.2786 5388031  63.6572 341.3179  4.91487490 50424
Source of the keplerian elements: AFSPC